Stations météo

réclame
Mon MeteoGroup
Boulogne, France (7002): Température de l'air & dewpoint: 16.09.2018 07:00:00 - 22.09.2018 07:00:00 (CEST)Boulogne, France (7002): Vitesse du vent & gusts: 16.09.2018 07:00:00 - 22.09.2018 07:00:00 (CEST)Boulogne, France (7002): Direction du vent: 16.09.2018 07:00:00 - 22.09.2018 07:00:00 (CEST)Boulogne, France (7002): reduced air pressure: 16.09.2018 07:00:00 - 22.09.2018 07:00:00 (CEST)Boulogne, France (7002): visibility: 16.09.2018 07:00:00 - 22.09.2018 07:00:00 (CEST)Boulogne, France (7002): Quantités de précipitations: 16.09.2018 07:00:00 - 22.09.2018 07:00:00 (CEST)
Date & Time tt [°C] td [°C] ff [km/h] ff [knt] fx [km/h] fx [knt] dd ppp [hPa] vv [km] rr [mm]
22.09.2018 07:00:00 13,6 9,8 18 10 44 24 W 1020,0 - 0,2
22.09.2018 06:00:00 14,3 9,3 22 12 35 19 W 1019,9 - 0,0
22.09.2018 05:00:00 14,3 9,3 23 12 41 22 WNW 1019,8 - 0,0
22.09.2018 04:00:00 14,5 8,9 24 13 45 24 W 1020,1 - 0,0
22.09.2018 03:00:00 14,4 8,3 29 16 48 26 W 1020,1 - 0,0
22.09.2018 02:00:00 14,4 7,4 32 17 51 28 W 1019,9 10 0,0
22.09.2018 01:00:00 14,8 7,8 34 18 59 32 W 1019,6 - 0,0
22.09.2018 00:00:00 14,7 7,5 41 22 59 32 W 1018,9 - 0,0
21.09.2018 23:00:00 15,0 7,5 41 22 66 36 W 1018,2 10 0,0
21.09.2018 22:00:00 15,3 7,3 48 26 74 40 W 1017,6 - 0,0
21.09.2018 21:00:00 15,9 8,1 45 24 82 44 W 1016,4 - 0,0
21.09.2018 20:00:00 15,5 9,8 44 24 79 43 WSW 1015,2 - 0,0
21.09.2018 19:00:00 15,4 8,8 48 26 89 48 WSW 1014,3 - 0,0
21.09.2018 18:00:00 16,1 8,3 45 24 84 45 WSW 1013,8 - 0,0
21.09.2018 17:00:00 15,8 6,8 51 27 93 50 W 1013,3 25 0,0
21.09.2018 16:00:00 15,9 7,9 48 26 87 47 W 1012,8 - 0,0
21.09.2018 15:00:00 15,8 7,3 44 24 79 43 WSW 1012,3 - 0,0
21.09.2018 14:00:00 15,4 7,4 45 24 74 40 W 1011,9 - 0,0
21.09.2018 13:00:00 14,8 7,8 37 20 68 37 W 1011,3 - 0,0
21.09.2018 12:00:00 14,1 8,1 42 23 77 42 W 1010,9 - 0,0
21.09.2018 11:00:00 13,7 6,8 50 27 74 40 W 1009,7 25 0,0
21.09.2018 10:00:00 13,6 7,4 52 28 76 41 W 1008,1 - 0,2
21.09.2018 09:00:00 13,9 9,3 45 24 71 39 W 1006,7 - 0,0
21.09.2018 08:00:00 14,1 11,4 44 24 75 41 W 1004,8 7 0,2
21.09.2018 07:00:00 16,0 9,9 49 27 80 43 W 1003,9 - 0,0
21.09.2018 06:00:00 15,8 13,6 42 23 84 46 WSW 1002,5 - 1,6
21.09.2018 05:00:00 17,4 15,4 38 21 75 41 S 1000,9 - 0,8
21.09.2018 04:00:00 18,6 14,7 36 19 68 37 S 1001,6 - 0,0
21.09.2018 03:00:00 18,8 14,5 37 20 76 41 S 1002,8 - 0,0
21.09.2018 02:00:00 19,1 14,4 34 19 63 34 SSW 1004,4 - 0,0
21.09.2018 01:00:00 19,3 14,1 35 19 69 37 SSW 1005,8 - 0,0
21.09.2018 00:00:00 19,3 14,5 28 15 53 29 SSW 1006,4 - 0,0
20.09.2018 23:00:00 19,3 15,2 31 17 59 32 SSW 1007,6 7 0,0
20.09.2018 22:00:00 19,7 15,3 20 11 39 21 SSW 1008,3 - 0,0
20.09.2018 21:00:00 19,4 15,1 16 9 30 16 S 1009,2 - 0,0
20.09.2018 20:00:00 19,3 15,0 16 9 32 17 S 1010,0 7 0,0
20.09.2018 19:00:00 19,7 15,1 18 10 33 18 S 1010,4 - 0,0
20.09.2018 18:00:00 19,5 15,4 21 12 37 20 SW 1011,7 - 0,0
20.09.2018 17:00:00 19,8 15,6 22 12 42 23 SW 1012,7 7 0,0
20.09.2018 16:00:00 21,3 14,5 23 12 51 27 SSW 1013,2 - 0,0
20.09.2018 15:00:00 20,2 15,2 29 16 51 28 SSW 1013,8 - 0,0
20.09.2018 14:00:00 20,1 15,7 25 14 51 27 SSW 1014,5 7 0,0
20.09.2018 13:00:00 19,5 15,6 27 15 53 29 SSW 1015,3 - 0,0
20.09.2018 12:00:00 18,6 15,8 26 14 50 27 SSW 1015,7 - 0,0
20.09.2018 11:00:00 18,2 16,0 25 14 49 26 SSW 1015,7 7 0,0
20.09.2018 10:00:00 17,9 16,1 24 13 46 25 SW 1015,8 - 0,0
20.09.2018 09:00:00 17,6 15,8 28 15 57 31 SW 1016,0 - 0,0
20.09.2018 08:00:00 17,6 15,6 29 16 52 28 SW 1015,8 - 0,0
20.09.2018 07:00:00 17,6 15,9 28 15 50 27 SW 1015,7 - 0,0
20.09.2018 06:00:00 17,7 16,2 26 14 50 27 SW 1015,8 - 0,0
20.09.2018 05:00:00 18,0 16,2 23 12 38 20 SW 1016,1 11 0,0
20.09.2018 04:00:00 17,8 16,7 17 9 29 15 SSW 1016,3 - 0,0
20.09.2018 03:00:00 17,3 16,3 17 9 43 23 SW 1016,5 - 0,2
20.09.2018 02:00:00 17,6 16,5 16 9 43 23 SSW 1016,8 - 0,2
20.09.2018 01:00:00 18,2 15,8 22 12 40 21 SW 1017,0 - 0,0
20.09.2018 00:00:00 18,1 15,9 23 12 40 22 SW 1017,0 - 0,0
19.09.2018 23:00:00 18,1 16,3 28 15 42 23 SW 1017,1 - 0,0
19.09.2018 22:00:00 18,5 15,9 28 15 48 26 WSW 1017,5 - 0,0
19.09.2018 21:00:00 18,8 15,8 28 15 45 24 WSW 1017,2 - 0,0
19.09.2018 20:00:00 19,3 15,8 31 17 49 27 WSW 1016,8 11 0,0
19.09.2018 19:00:00 19,8 15,4 26 14 50 27 SSW 1016,4 - 0,0
19.09.2018 18:00:00 20,5 15,7 31 17 55 30 SW 1016,2 - 0,0
19.09.2018 17:00:00 20,1 15,3 32 18 59 32 SW 1016,4 7 0,0
19.09.2018 16:00:00 20,0 15,0 33 18 67 36 SW 1016,6 - 0,0
19.09.2018 15:00:00 20,2 15,2 36 20 58 31 SSW 1016,3 - 0,0
19.09.2018 14:00:00 19,2 15,7 33 18 62 33 SSW 1016,4 6 0,0
19.09.2018 13:00:00 19,1 15,6 32 17 53 28 SSW 1016,4 - 0,0
19.09.2018 12:00:00 18,0 15,4 30 16 52 28 SW 1016,6 - 0,0
19.09.2018 11:00:00 18,0 15,3 26 14 61 33 SSW 1016,3 - 0,0
19.09.2018 10:00:00 17,7 15,1 25 14 45 24 SSW 1015,9 - 0,0
19.09.2018 09:00:00 17,3 15,1 20 11 40 21 SSW 1015,5 - 0,0
19.09.2018 08:00:00 17,2 15,0 21 11 42 23 SSW 1015,1 - 0,0
19.09.2018 07:00:00 17,5 15,5 23 12 39 21 SW 1014,9 - 0,0
19.09.2018 06:00:00 17,0 15,7 19 11 39 21 SSW 1014,8 - 0,0
19.09.2018 05:00:00 15,3 13,7 14 8 23 13 SSE 1015,0 12 0,0
19.09.2018 04:00:00 15,4 13,6 9 5 15 8 SSE 1015,3 - 0,0
19.09.2018 03:00:00 15,3 13,8 10 6 19 10 SSE 1015,3 - 0,0
19.09.2018 02:00:00 15,3 14,0 12 7 19 10 SE 1015,3 10 0,0
19.09.2018 01:00:00 15,8 14,0 11 6 21 12 SSE 1015,2 - 0,0
19.09.2018 00:00:00 16,8 14,4 13 7 21 11 S 1014,9 - 0,0
18.09.2018 23:00:00 16,7 14,7 10 5 16 9 S 1015,0 - 0,0
18.09.2018 22:00:00 17,4 14,9 12 6 25 13 SW 1015,1 - 0,0
18.09.2018 21:00:00 17,6 15,2 16 9 34 18 SW 1015,3 - 0,0
18.09.2018 20:00:00 17,9 15,3 27 14 45 25 WSW 1015,0 6 0,0
18.09.2018 19:00:00 18,8 14,7 34 19 57 31 SW 1014,6 - 0,0
18.09.2018 18:00:00 18,6 14,1 33 18 50 27 SW 1014,5 - 0,0
18.09.2018 17:00:00 18,6 14,3 31 17 62 34 SW 1014,4 7 0,0
18.09.2018 16:00:00 18,3 14,6 39 21 61 33 SW 1013,9 - 0,0
18.09.2018 15:00:00 18,4 14,1 45 24 66 35 SW 1013,5 - 0,0
18.09.2018 14:00:00 18,6 14,3 47 25 68 37 WSW 1013,4 6 0,0
18.09.2018 13:00:00 19,1 14,6 40 21 67 36 SW 1012,6 - 0,0
18.09.2018 12:00:00 18,9 14,8 45 24 68 37 SW 1011,9 - 0,0
18.09.2018 11:00:00 18,7 15,8 39 21 61 33 SW 1011,0 - 0,0
18.09.2018 10:00:00 18,8 15,8 34 18 57 31 SW 1010,5 - 0,0
18.09.2018 09:00:00 18,7 15,4 34 19 56 30 SW 1009,9 - 0,0
18.09.2018 08:00:00 18,0 16,2 27 15 52 28 SSW 1009,8 - 0,0
18.09.2018 07:00:00 17,9 15,9 24 13 60 32 SSW 1009,7 - 0,0
18.09.2018 06:00:00 18,4 15,3 31 17 54 29 SW 1009,5 - 0,0
18.09.2018 05:00:00 20,8 11,4 24 13 48 26 SSW 1008,7 15 0,0
18.09.2018 04:00:00 21,5 10,0 24 13 51 28 S 1008,5 - 0,0
18.09.2018 03:00:00 21,0 8,6 27 15 42 23 SSE 1008,8 - 0,0
18.09.2018 02:00:00 20,3 8,3 26 14 42 23 SSE 1009,3 - 0,0
18.09.2018 01:00:00 20,4 7,7 22 12 34 19 SE 1009,8 - 0,0
18.09.2018 00:00:00 20,7 7,7 21 11 34 18 SE 1010,3 - 0,0
17.09.2018 23:00:00 20,9 8,2 19 11 32 18 SE 1010,8 15 0,0
17.09.2018 22:00:00 21,5 8,0 17 9 29 16 SE 1011,3 - 0,0
17.09.2018 21:00:00 21,7 8,9 14 7 24 13 SE 1011,9 - 0,0
17.09.2018 20:00:00 22,7 9,1 13 7 24 13 SE 1012,4 25 0,0
17.09.2018 19:00:00 24,2 9,4 9 5 17 9 S 1013,1 - 0,0
17.09.2018 18:00:00 23,4 10,1 11 6 26 14 SW 1013,7 - 0,0
17.09.2018 17:00:00 23,7 8,9 15 8 31 17 SW 1014,3 25 0,0
17.09.2018 16:00:00 23,7 8,5 16 9 35 19 SSW 1015,3 - 0,0
17.09.2018 15:00:00 23,4 8,3 23 13 40 22 S 1016,1 - 0,0
17.09.2018 14:00:00 23,1 9,1 17 9 34 18 SSW 1016,7 25 0,0
17.09.2018 13:00:00 21,9 8,0 18 10 34 19 SSW 1017,3 - 0,0
17.09.2018 12:00:00 20,9 9,5 13 7 31 17 SSW 1017,9 - 0,0
17.09.2018 11:00:00 19,3 12,1 11 6 19 11 S 1018,3 25 0,0
17.09.2018 10:00:00 16,4 10,7 11 6 19 11 ESE 1018,6 - 0,0
17.09.2018 09:00:00 14,8 9,6 13 7 18 10 SE 1018,7 - 0,0
17.09.2018 08:00:00 13,4 10,4 12 6 18 10 SE 1018,9 10 0,0
17.09.2018 07:00:00 13,2 10,6 13 7 19 10 SSE 1018,9 - 0,0
17.09.2018 06:00:00 13,2 11,6 9 5 18 10 SSE 1018,9 - 0,0
17.09.2018 05:00:00 13,5 12,2 12 6 19 11 SSE 1018,5 15 0,2
17.09.2018 04:00:00 13,8 12,7 12 7 18 10 SSE 1019,3 - 0,0
17.09.2018 03:00:00 13,8 12,7 8 4 15 8 S 1019,8 - 0,0
17.09.2018 02:00:00 14,2 12,9 10 5 16 8 SSE 1019,8 15 0,0
17.09.2018 01:00:00 14,2 12,6 8 4 14 8 SSE 1019,9 - 0,0
17.09.2018 00:00:00 14,6 12,5 8 5 16 8 S 1019,9 - 0,0
16.09.2018 23:00:00 14,9 12,8 9 5 18 10 S 1020,0 15 0,0
16.09.2018 22:00:00 16,0 12,7 9 5 18 10 S 1020,0 - 0,0
16.09.2018 21:00:00 16,7 13,2 11 6 16 9 SW 1020,0 - 0,0
16.09.2018 20:00:00 17,9 11,9 9 5 21 11 S 1019,7 - 0,0
16.09.2018 19:00:00 19,1 11,6 14 8 24 13 SW 1019,4 - 0,0
16.09.2018 18:00:00 19,3 13,0 16 9 33 18 SW 1019,3 - 0,0
16.09.2018 17:00:00 19,7 12,5 20 11 36 19 SW 1019,4 20 0,0
16.09.2018 16:00:00 19,7 12,2 20 11 39 21 SW 1019,6 - 0,0
16.09.2018 15:00:00 19,1 11,9 19 11 39 21 S 1019,9 - 0,0
16.09.2018 14:00:00 18,7 11,5 24 13 39 21 S 1020,2 18 0,0
16.09.2018 13:00:00 18,4 11,9 21 11 38 20 S 1021,1 - 0,0
16.09.2018 12:00:00 17,6 11,2 22 12 37 20 S 1021,5 - 0,0
16.09.2018 11:00:00 17,3 10,9 17 9 36 19 S 1021,4 - 0,0
16.09.2018 10:00:00 16,0 10,1 19 10 32 18 S 1021,0 - 0,0
16.09.2018 09:00:00 13,9 9,7 19 10 31 17 SSE 1021,2 - 0,0
16.09.2018 08:00:00 12,9 9,5 21 11 36 19 SE 1021,2 17 0,0
16.09.2018 07:00:00 12,5 9,7 16 9 28 15 SE 1021,5 - 0,0

tt = Température de l'air
td = dewpoint
ff = Vitesse du vent
fx = gusts
dd = Direction du vent
ppp = reduced air pressure
vv = visibility
rr = Quantités de précipitations

stations d'obs. à proximité